Tracking 19199 objects as of 25-Jun-2018
HD Live streaming from Space Station
objects crossing your sky now

FENGYUN 1C DEB

Track FENGYUN 1C DEB now!
10-day predictions


NORAD ID: 36203
Int'l Code: 1999-025DUC
Perigee: 633.4 km
Apogee: 813.4 km
Inclination: 99.2 °
Period: 99.1 minutes
Semi major axis: 7094 km
RCS: 0.0118 m2 (small)
Launch date: May 10, 1999
Source: People's Republic of China (PRC)
Launch site: Taiyaun Space Center, China (TSC)

Note: This is SATELLITE DEBRIS
aabbcc
Your satellite tracking list
Your tracking list is empty




NASA's NSSDC Master Catalog

Two Line Element Set (TLE):
1 36203U 99025DUC 18174.21514220  .00000456  00000-0  11268-3 0  9993
2 36203  99.1567 177.5106 0126890 139.7422 221.3253 14.52875458510557
Source of the keplerian elements: AFSPC